Location: Boca de Tacagua
(10.5333°N, 66.9833°W)
Time: 12:11:00
(UTC+00:00)

Cosmos 1666 Rocket - Pass Details

Date: 06 July 2022
Orbit: 602 x 633 km, 82.5° (Epoch: 14 August)

Event Time Altitude Azimuth Distance (km) Brightness Sun altitude
Exits shadow 08:02:00 24° 353° (N) 1,289 5.4 -28.9°
Drops below altitude 10° 08:03:50 10° 358° (N) 1,998 6.5 -28.6°
Sets 08:06:05 0° 0° (N) 2,908 7.4 -28.1°
